This is the latest recevied weather packets stored in our database for station/object KK7KHO. If no packets are shown the sender has not sent any weather packets the latest 10 day(s).
| Time | Temp. | Humidity | Pressure | Rain* | Wind** | Luminosity | Snow |
|---|---|---|---|---|---|---|---|
| 1777757459 | 22.22° C | 65% | 1014.6 hPa | 0 mm | - | 622 W/m² | - |
| 1777757158 | 21.67° C | 67% | 1014.8 hPa | 0 mm | - | 628 W/m² | - |
| 1777756855 | 21.67° C | 66% | 1014.6 hPa | 0 mm | - | 632 W/m² | - |
| 1777756550 | 22.22° C | 67% | 1014.7 hPa | 0 mm | - | 636 W/m² | - |
| 1777756248 | 22.22° C | 66% | 1014.9 hPa | 0 mm | - | 640 W/m² | - |
| 1777755945 | 21.11° C | 69% | 1015 hPa | 0 mm | - | 645 W/m² | - |
| 1777755642 | 21.11° C | 70% | 1014.7 hPa | 0 mm | - | 649 W/m² | - |
| 1777755338 | 21.11° C | 71% | 1014.8 hPa | 0 mm | - | 651 W/m² | - |
| 1777755036 | 21.11° C | 70% | 1015 hPa | 0 mm | - | 653 W/m² | - |
| 1777754732 | 21.11° C | 70% | 1015.1 hPa | 0 mm | - | 657 W/m² | - |
| 1777754431 | 20.56° C | 71% | 1015 hPa | 0 mm | - | 660 W/m² | - |
| 1777754127 | 20.56° C | 71% | 1014.9 hPa | 0 mm | - | 662 W/m² | - |
| 1777753824 | 20.56° C | 71% | 1014.9 hPa | 0 mm | - | 663 W/m² | - |
| 1777753520 | 20.56° C | 70% | 1015.2 hPa | 0 mm | - | 664 W/m² | - |
| 1777753219 | 19.44° C | 72% | 1015.1 hPa | 0 mm | - | 666 W/m² | - |
| 1777752914 | 20° C | 71% | 1015.3 hPa | 0 mm | - | 666 W/m² | - |
| 1777752611 | 20° C | 70% | 1015.4 hPa | 0 mm | - | 666 W/m² | - |
| 1777752307 | 20° C | 70% | 1015.4 hPa | 0 mm | - | 666 W/m² | - |
| 1777752005 | 20° C | 70% | 1015.5 hPa | 0 mm | - | 665 W/m² | - |
| 1777751702 | 20° C | 71% | 1015.5 hPa | 0 mm | - | 665 W/m² | - |
| 1777751397 | 20° C | 73% | 1015.7 hPa | 0 mm | - | 663 W/m² | - |
| 1777751095 | 19.44° C | 74% | 1016 hPa | 0 mm | - | 662 W/m² | - |
| 1777750790 | 20° C | 72% | 1015.8 hPa | 0 mm | - | 661 W/m² | - |
| 1777750488 | 19.44° C | 73% | 1015.8 hPa | 0 mm | - | 659 W/m² | - |
| 1777750183 | 19.44° C | 72% | 1015.9 hPa | 0 mm | - | 657 W/m² | - |
* Rain latest hour (hover to see other rain measurements)
** Current wind speed in m/s (hover to see current wind gust speed)